Regional Weather Roundup
Issued by NWS Jackson, KY

Home | Current Version | Previous Version | Text Only | Print | Product List | Glossary Off
Versions: 1 2 3 4 5 6 7 8 9 10 11 12 13 14 15 16 17 18 19 20 21 22 23 24 25 26 27 28 29 30 31 32 33 34 35 36 37 38 39 40 41 42 43 44 45 46 47 48 49 50

041
ASUS43 KJKL 100610
RWRJKL

EAST KENTUCKY HOURLY WEATHER ROUNDUP
NATIONAL WEATHER SERVICE JACKSON KY
100 AM EST SAT DEC 10 2016

NOTE: "FAIR" INDICATES FEW OR NO CLOUDS BELOW 12,000 FEET WITH
NO SIGNIFICANT WEATHER AND/OR OBSTRUCTIONS TO VISIBILITY.

* THESE REPORTS ARE NOT UNDER NWS QUALITY CONTROL AND MAY NOT
  REPORT WEATHER SUCH AS PRECIPITATION AND FOG.

KYZ079-080-083-085-087-088-110-112-115-119-120-100700
...EASTERN KENTUCKY...

CITY           SKY/WX    TMP DP  RH WIND       PRES   REMARKS
JACKSON        CLEAR     19  13  77 CALM      30.50S
6HR MIN TEMP:  19; 6HR MAX TEMP:  22;

LONDON         CLEAR     17  13  84 CALM      30.52F
6HR MIN TEMP:  16; 6HR MAX TEMP:  24;

SOMERSET*      CLEAR     18  16  93 CALM      30.57S
MONTICELLO*    CLEAR     11   7  84 CALM      30.57S
6HR MIN TEMP:  11; 6HR MAX TEMP:  20;

MIDDLESBORO*   CLEAR     19  16  91 CALM      30.53F
6HR MIN TEMP:  18; 6HR MAX TEMP:  25;

HARLAN APT*    PTCLDY    19  18  93 CALM      30.50S
PIKE CO APT*   CLOUDY    21  17  84 CALM      30.49S
BIG SANDY APT* CLOUDY    22  14  71 CALM      30.51S
6HR MIN TEMP:  22; 6HR MAX TEMP:  24;

MOREHEAD APT*  CLOUDY    21  10  63 CALM      30.54F
ASHLAND*       PTCLDY    23  12  63 CALM      30.52F
$$

KYZ035-036-041-042-044-050-067-078-099-100700
...CENTRAL KENTUCKY...

CITY           SKY/WX    TMP DP  RH WIND       PRES   REMARKS
MT STERLING*   CLEAR     19  14  79 W3        30.55S
FLEMING/MASON* CLEAR     17  11  78 SW5       30.54S WCI  10
DANVILLE*      CLEAR     18  14  86 CALM      30.56S
LEXINGTON      CLOUDY    21  14  74 CALM      30.54S
6HR MIN TEMP:  21; 6HR MAX TEMP:  24;

FRANKFORT      CLEAR     18  11  74 CALM      30.55R
6HR MIN TEMP:  17; 6HR MAX TEMP:  25;

LOUISVILLE     MOCLDY    25  12  58 W8        30.58S WCI  16
6HR MIN TEMP:  23; 6HR MAX TEMP:  26;

LEBANON*         N/A     18  14  86 CALM      30.56F
GLASGOW*       CLEAR     17  15  90 CALM      30.57F
BOWLING GREEN  CLEAR     20  14  77 CALM      30.59F
6HR MIN TEMP:  20; 6HR MAX TEMP:  28;

$$

KYZ091>093-OHZ055-061-077-WVZ005-015-034-035-042-100700
...SOUTHERN OHIO/WEST VIRGINIA...

CITY           SKY/WX    TMP DP  RH WIND       PRES   REMARKS
COVINGTON      PTCLDY    20  14  77 SW6       30.53R WCI  12
COLUMBUS       CLOUDY    24  18  77 W10       30.47F WCI  14
DAYTON         CLOUDY    22  19  89 W6        30.49S WCI  14
WILMINGTON     CLOUDY    18  15  88 SW7       30.49S WCI   9
HUNTINGTON     CLOUDY    24  13  62 S3        30.51F
CHARLESTON     CLOUDY    23  12  62 SW6       30.50F WCI  16
PINEVILLE*       N/A     22  11  63 MISG      30.50F
BECKLEY        CLOUDY    18  10  71 W5        30.39F WCI  11
BLUEFIELD      CLOUDY    16   9  74 NW5       30.37F WCI   9
LOGAN CO APT*  CLOUDY    21  12  68 CALM      30.46F
$$

VAZ002-007-008-TNZ017-027-036-066-071-100700
...SOUTHWEST VIRGINIA/EAST TENNESSEE...

CITY           SKY/WX    TMP DP  RH WIND       PRES   REMARKS
WISE*          PTCLDY    18  12  79 CALM      30.41S
ABINGDON*      CLEAR     17  14  86 CALM      30.44F
BRISTOL        CLEAR     18  12  77 CALM      30.49F
MORRISTOWN*    CLEAR     21  16  79 CALM      30.48F
SEVIERVILLE*   CLEAR     18  16  93 CALM      30.51S
KNOXVILLE      CLEAR     24  15  68 NE3       30.52S
OAK RIDGE      CLEAR     24  17  74 CALM      30.54S
CROSSVILLE     CLEAR     18  14  84 CALM      30.48S
NASHVILLE      CLEAR     24  16  71 N6        30.59F WCI  17
$$

...KEY TO REMARKS...
VSB - VISIBILITY IN MILES
WCI - WIND CHILL INDEX
HX  - HEAT INDEX

$$




USA.gov is the U.S. government's official web portal to all federal, state and local government web resources and services.